x

Corpus Christi, Tx - 60nm Sse Of Corpus Christi, Tx (42020) Wave Buoy

2:50pm - Sun 24th May 2015 All times are CDT. -5 hours from GMT.

  • Sig Wave height 6.6ft
  • Swell Direction
  • Peak Period 8s
  • Average Period 6s
  • Wind
    18mph, 20mph gusts
  • Sea Temp 79°f
  • Air Temp 79°f
  • Sea Pressure 1012.1mb
  • Corpus Christi, Tx - 60nm Sse Of Corpus Christi, Tx
  • Corpus Christi, Tx - 60nm Sse Of Corpus Christi, Tx

More Historic Weather Station data

Upgrade to MSW Pro to gain access to the past 30 days of data for over 8000 Wavebouys and Weather Stations around the globe.

Join Pro

Comparision Forecast

View Surf forecast
   
Sun 05/24 2:50pm 6.5ft 8s 6s 18 20 mph 1012.1mb 79f 79f
1:50pm 6.5ft 8s 6s 20 25 mph 1012.7mb 79f 78f
12:50pm 6.5ft 8s 5s 27 31 mph 1012.8mb 79f 77f
11:50am 7ft 8s 6s 22 27 mph 1013.8mb 79f 77f
10:50am 8ft 8s 6s 27 31 mph 1012mb 79f 76f
9:50am 7.5ft 8s 6s 29 34 mph 1012.2mb 79f 76f
8:50am 7ft 8s 5s 31 38 mph 1010.3mb 79f 75f
7:50am 6.5ft 8s 5s 29 36 mph 1012.2mb 79f 75f
6:50am 6ft 8s 6s 27 34 mph 1011.9mb 79f 75f
5:50am 6ft 7s 5s 20 22 mph 1012.3mb 79f 74f
4:50am 6.5ft 7s 5s 11 13 mph 1013.4mb 79f 72f
3:50am 6ft 7s 5s 20 29 mph 1013.6mb 80f 73f
2:50am 5ft 7s 5s 18 22 mph 1012.3mb 80f 81f
1:50am 5ft 7s 5s 20 25 mph 1012.7mb 80f 81f
12:50am 5ft 7s 5s 18 25 mph 1014.2mb 80f 81f
Sat 05/23 11:50pm 5ft 7s 5s 20 25 mph 1013.9mb 80f 81f
10:50pm 5.5ft 7s 5s 20 25 mph 1012.8mb 80f 81f
9:50pm 6ft 7s 5s 22 27 mph 1011.9mb 80f 81f
8:50pm 6ft 7s 5s 25 29 mph 1011.8mb 80f 81f
7:50pm 6ft 7s 5s 27 31 mph 1011.1mb 80f 81f
6:50pm 5.5ft 7s 5s 25 31 mph 1011.3mb 80f 81f
5:50pm 5ft 7s 5s 25 29 mph 1012.2mb 80f 81f
4:50pm 5ft 7s 5s 20 25 mph 1013.7mb 80f 81f
3:50pm 5ft 7s 5s 20 22 mph 1015.1mb 80f 81f
2:50pm 5ft 7s 5s 18 22 mph 1016mb 80f 81f
1:50pm 5ft 6s 5s 18 22 mph 1017mb 80f 81f
12:50pm 5ft 6s 5s 20 22 mph 1017.7mb 80f 81f
11:50am 4.5ft 6s 5s 18 20 mph 1018mb 80f 81f
10:50am 5ft 6s 5s 18 20 mph 1017.9mb 80f 81f
9:50am 5ft 6s 5s 20 25 mph 1017.8mb 80f 81f
8:50am 4.5ft 6s 5s 20 25 mph 1017.2mb 80f 81f
7:50am 4.5ft 6s 5s 16 18 mph 1017.5mb 80f 81f
6:50am 5ft 5s 5s 16 20 mph 1016.8mb 80f 81f
5:50am 5ft 6s 5s 18 22 mph 1016.2mb 80f 80f
4:50am 4.5ft 6s 5s 20 22 mph 1016.5mb 80f 80f
3:50am 4.5ft 6s 5s 20 25 mph 1016.5mb 80f 80f
2:50am 4.5ft 6s 5s 20 22 mph 1016.4mb 80f 81f
1:50am 4.5ft 6s 5s 18 25 mph 1016.6mb 80f 81f
12:50am 4ft 6s 4s 18 22 mph 1017mb 80f 81f
Fri 05/22 11:50pm 3.5ft 6s 5s 18 22 mph 1016.5mb 81f 81f
10:50pm 3.5ft 6s 5s 16 20 mph 1016mb 81f 81f
9:50pm 3.5ft 6s 5s 16 18 mph 1015.8mb 81f 81f
8:50pm 3.5ft 6s 5s 13 18 mph 1015.5mb 81f 81f
7:50pm 3.5ft 6s 5s 16 18 mph 1015.1mb 81f 81f
6:50pm 3.5ft 6s 5s 16 18 mph 1015.4mb 81f 81f
5:50pm 3.5ft 6s 5s 16 20 mph 1015.7mb 81f 81f
4:50pm 3.5ft 6s 4s 16 18 mph 1015.9mb 81f 81f
3:50pm 3.5ft 6s 5s 16 20 mph 1016.3mb 81f 81f
2:50pm 3.5ft 6s 4s 16 18 mph 1016.6mb 81f 81f
1:50pm 3ft 6s 4s 13 16 mph 1016.8mb 81f 81f
12:50pm 2.5ft 6s 4s 11 13 mph 1017.2mb 80f 81f
11:50am 3ft 6s 5s 13 16 mph 1016.8mb 80f 81f
10:50am 3ft 6s 5s 9
mph
1016.8mb 80f 80f
9:50am 2.5ft 6s 4s 11
mph
1016.7mb 80f 80f
8:50am 3ft 6s 4s 13
mph
1016.5mb 80f 80f
7:50am 3ft 6s 4s 11 13 mph 1016.2mb 80f 80f
6:50am 3ft 5s 4s 9 11 mph 1016.2mb 80f 80f
5:50am 2.5ft 5s 4s 9 11 mph 1015.8mb 80f 80f
4:50am 3ft 5s 4s 9 11 mph 1015.8mb 80f 80f
3:50am 3.5ft 4s 4s 11 16 mph 1015.5mb 80f 80f
2:50am 3.5ft 6s 4s 11 13 mph 1016.2mb 80f 80f
1:50am 3.5ft 6s 4s 16 18 mph 1015.8mb 80f 80f
12:50am 3ft 6s 4s 13 18 mph 1015.4mb 80f 80f
Thu 05/21 11:50pm 3ft 7s 4s 16 18 mph 1015.4mb 80f 80f
10:50pm 2.5ft 6s 4s 11 13 mph 1016.1mb 80f 80f
9:50pm 3ft 7s 5s 13 16 mph 1015.2mb 80f 80f
8:50pm 3ft 6s 5s 13
mph
1015.2mb 80f 80f
7:50pm 3.5ft 7s 5s 11 16 mph 1014.3mb 81f 80f
6:50pm 3.5ft 7s 5s 13 18 mph 1013.9mb 81f 80f
5:50pm 3.5ft 7s 5s 9 11 mph 1014.3mb 80f 80f
4:50pm 3.5ft 7s 5s 9 11 mph 1014.6mb 80f 81f
3:50pm 3.5ft 6s 4s 22 25 mph 1012.7mb 80f 80f
2:50pm 3ft 7s 5s 20 22 mph 1013.6mb 80f 80f
1:50pm 3ft 6s 5s 11 13 mph 1015.3mb 80f 80f
12:50pm 3ft 7s 5s 9 11 mph 1015.8mb 81f 80f
11:50am 3ft 6s 5s 7
mph
1016.4mb 80f 80f
10:50am 3.5ft 6s 5s 7
mph
1016.4mb 80f 80f
9:50am 3.5ft 6s 5s 9 11 mph 1016mb 80f 80f
8:50am 3.5ft 6s 5s 9 11 mph 1015.6mb 80f 80f
7:50am 3.5ft 6s 5s 9 11 mph 1015.4mb 80f 80f
6:50am 3.5ft 6s 4s 11 13 mph 1014.7mb 80f 80f
5:50am 3.5ft 6s 5s 13 18 mph 1013.8mb 80f 80f
4:50am 3.5ft 6s 5s 16 18 mph 1013.6mb 80f 80f
3:50am 3.5ft 6s 5s 13 16 mph 1013.9mb 80f 80f
2:50am 4.5ft 6s 5s 13 16 mph 1014.3mb 80f 80f
1:50am 4ft 7s 5s 16 18 mph 1013.7mb 80f 80f
12:50am 4.5ft 7s 5s 13 16 mph 1013.7mb 80f 80f
Wed 05/20 11:50pm 4.5ft 7s 5s 16 18 mph 1014mb 80f 80f
10:50pm 3.5ft 6s 5s 13 18 mph 1014.4mb 80f 80f
9:50pm 4ft 7s 5s 16 18 mph 1013.4mb 80f 80f
8:50pm 4ft 7s 5s 13 16 mph 1013.6mb 81f 80f